"Pseudo-MPEC" for CAXA292

Created 2024 Oct 5 23:22:06 UT using Find_Orb

Click here for an explanation of pseudo-MPECs

 
 Astrometry: 
     CAXA292*1C2024 09 27.24348523 03 47.758+11 41 21.95   ~9R6b 19.83GVNEOCPG96
     CAXA292 1C2024 09 27.24920723 03 35.114+11 40 58.98   ~9R6bx20.24GVNEOCPG96
     CAXA292 1C2024 09 27.25492923 03 21.928+11 40 35.47   ~9R6b 20.80GVNEOCPG96
     CAXA292 1C2024 09 27.26063523 03 09.029+11 40 12.40   ~9R6b 20.59GVNEOCPG96
     CAXA292  C2024 09 27.29618823 02 01.624+11 38 36.67   ~9UNq 19.77GVNEOCPF52
     CAXA292  C2024 09 27.30678223 01 36.857+11 37 53.56   ~9UNq 19.82GVNEOCPF52
     CAXA292 KC2024 09 27.33509223 00 15.815+11 34 50.23   ~9R8M 20.06GVNEOCPI52
     CAXA292 KC2024 09 27.33585723 00 13.972+11 34 46.88   ~9R8M 19.64GVNEOCPI52
     CAXA292 KC2024 09 27.33661223 00 12.154+11 34 43.46   ~9R8M 20.22GVNEOCPI52
     CAXA292 KC2024 09 27.33736523 00 10.364+11 34 39.94   ~9R8M 20.01GVNEOCPI52

Station data:
(F52) Pan-STARRS 2, Haleakala  (N20.707382 W156.255910)  US/Hawaii.
   Observers J. Bulger, T. Dukes, T. Lowe, A. Schultz, M. Willman. Measurers
   K. Chambers, S. Chastel, T. de Boer, L. Denneau, J. Fairlamb, H.
   Flewelling, M. Huber, C.-C. Lin, E. Magnier, Y. Ramanjooloo, R. Wainscoat,
   R. Weryk. 1.8-m Ritchey-Chrétien + CCD.
(G96) Mt. Lemmon Survey  (N32.442729 W110.788720)  US/Arizona.  Observer E.
   J. Christensen. 1.5-m reflector + 10K CCD.
(I52) Steward Observatory, Mt. Lemmon Station  (N32.442570 W110.788920)
   US/Arizona.  Observers T. A. Pruyne, B. M. Africano, E. J. Christensen, G.
   A. Farneth, D. C. Fuls, A. R. Gibbs, A. D. Grauer, H. Gröller, J. A.
   Johnson, R. A. Kowalski, S. M. Larson, G. J. Leonard, D. Rankin, R. L.
   Seaman, F. C. Shelly, K. W. Wierzchoś. 1.0-m prime focus + CCD.

Orbital elements:  CAXA292
   Perihelion 2024 Nov 17.97295 +/- 2.03 TT = 23:21:03 (JD 2460632.47295)
Epoch 2024 Sep 27.0 TT = JDT 2460580.5   Earth MOID: 0.0039   Ve: 0.0079
M 334.45219911 +/- 5.7              (J2000 ecliptic)             AutoNEOCP
n   0.49155955 +/- 0.0877           Peri.  281.25841 +/- 1.9
a   1.59007871 +/- 0.167            Node   187.78210 +/- 0.38
e   0.6838931 +/- 0.0376            Incl.    6.92033 +/- 0.6
P   2.005/732.349d         H 26.96  G  0.15   U 11.1
q 0.50263470 +/- 0.00154    Q 2.67752271 +/- 0.336
9 of 10 observations 2024 Sept. 27 (2.3 hr); mean residual 0".43
Residuals in arcseconds: 
240927 G96  .70+  .61+    240927 F52  .56+  .08-    240927 I52  .29-  .50+    
240927 G96( 3.5+  .53+)   240927 F52  .28-  .24-    240927 I52  .18-  .44+    
240927 G96  .78-  .10+    240927 I52  .23+  .32+    
240927 G96  .59-  .26+    240927 I52  .04-  .47+    

Ephemerides (geocentric):
Date (UTC) HH   RA             Dec           delta  r     elong  mag " sig PA
---- --------  ------------   ------------  ------ ------ -----  --- --------
2024 10 05 23  13 05 59.741   -13 42 45.03  .07993 .92114   9.8 37?? 8069  91
2024 10 06 00  13 05 46.992   -13 42 40.95  .08044 .92061   9.7 37?? 8043  91
2024 10 06 01  13 05 34.402   -13 42 36.83  .08095 .92008   9.7 37?? 8017  91
2024 10 06 02  13 05 21.968   -13 42 32.66  .08146 .91955   9.6 37?? 7992  91
2024 10 06 03  13 05 09.687   -13 42 28.45  .08197 .91902   9.6 37?? 7967  91
2024 10 06 04  13 04 57.556   -13 42 24.20  .08248 .91849   9.5 37?? 7943  91
2024 10 06 05  13 04 45.573   -13 42 19.91  .08300 .91796   9.5 38?? 7918  91
2024 10 06 06  13 04 33.735   -13 42 15.58  .08351 .91743   9.4 38?? 7894  91
2024 10 06 07  13 04 22.039   -13 42 11.22  .08402 .91691   9.4 38?? 7871  91
2024 10 06 08  13 04 10.482   -13 42 06.81  .08453 .91638   9.3 38?? 7847  91
2024 10 06 09  13 03 59.064   -13 42 02.38  .08504 .91585   9.3 38?? 7824  91
2024 10 06 10  13 03 47.780   -13 41 57.90  .08556 .91532   9.2 38?? 7802  91
2024 10 06 11  13 03 36.628   -13 41 53.40  .08607 .91479   9.2 38?? 7779  91
2024 10 06 12  13 03 25.608   -13 41 48.86  .08658 .91426   9.1 38?? 7757  91
2024 10 06 13  13 03 14.715   -13 41 44.29  .08709 .91373   9.1 38?? 7735  91
2024 10 06 14  13 03 03.948   -13 41 39.68  .08761 .91320   9.0 38?? 7713  91
2024 10 06 15  13 02 53.304   -13 41 35.05  .08812 .91267   9.0 38?? 7692  91
2024 10 06 16  13 02 42.783   -13 41 30.38  .08863 .91214   8.9 38?? 7671  91
2024 10 06 17  13 02 32.380   -13 41 25.69  .08914 .91161   8.9 38?? 7650  91
2024 10 06 18  13 02 22.096   -13 41 20.97  .08966 .91108   8.8 38?? 7629  91
2024 10 06 19  13 02 11.927   -13 41 16.22  .09017 .91055   8.8 38?? 7608  91
2024 10 06 20  13 02 01.872   -13 41 11.44  .09069 .91002   8.8 38?? 7588  91
2024 10 06 21  13 01 51.929   -13 41 06.64  .09120 .90949   8.7 39?? 7568  91
2024 10 06 22  13 01 42.096   -13 41 01.81  .09171 .90896   8.7 39?? 7548  91
2024 10 06 23  13 01 32.371   -13 40 56.95  .09223 .90843   8.6 39?? 7529  91
2024 10 07 00  13 01 22.752   -13 40 52.07  .09274 .90790   8.6 39?? 7510  91
2024 10 07 01  13 01 13.239   -13 40 47.17  .09326 .90737   8.5 39?? 7490  91
2024 10 07 02  13 01 03.828   -13 40 42.24  .09377 .90684   8.5 39?? 7472  91
2024 10 07 03  13 00 54.519   -13 40 37.29  .09429 .90631   8.5 39?? 7453  91
2024 10 07 04  13 00 45.310   -13 40 32.31  .09480 .90578   8.4 39?? 7434  91
2024 10 07 05  13 00 36.200   -13 40 27.31  .09532 .90525   8.4 39?? 7416  91
2024 10 07 06  13 00 27.186   -13 40 22.29  .09583 .90472   8.4 39?? 7398  91
2024 10 07 07  13 00 18.267   -13 40 17.25  .09635 .90419   8.3 39?? 7380  91
2024 10 07 08  13 00 09.443   -13 40 12.19  .09686 .90366   8.3 39?? 7362  91
2024 10 07 09  13 00 00.710   -13 40 07.10  .09738 .90313   8.3 39?? 7345  91
2024 10 07 10  12 59 52.069   -13 40 02.00  .09789 .90260   8.2 39?? 7328  91
2024 10 07 11  12 59 43.517   -13 39 56.87  .09841 .90207   8.2 39?? 7310  91
2024 10 07 12  12 59 35.054   -13 39 51.73  .09893 .90154   8.2 39?? 7293  91
2024 10 07 13  12 59 26.677   -13 39 46.57  .09944 .90101   8.1 39?? 7277  91
2024 10 07 14  12 59 18.386   -13 39 41.38  .09996 .90048   8.1 39?? 7260  91
2024 10 07 15  12 59 10.180   -13 39 36.18  .10047 .89995   8.1 39?? 7244  91
2024 10 07 16  12 59 02.057   -13 39 30.96  .10099 .89942   8.0 39?? 7227  91
2024 10 07 17  12 58 54.015   -13 39 25.72  .10151 .89889   8.0 40?? 7211  91
2024 10 07 18  12 58 46.054   -13 39 20.46  .10202 .89836   8.0 40?? 7195  91
2024 10 07 19  12 58 38.173   -13 39 15.19  .10254 .89782   8.0 40?? 7179  91
2024 10 07 20  12 58 30.371   -13 39 09.90  .10306 .89729   7.9 40?? 7164  91
2024 10 07 21  12 58 22.645   -13 39 04.59  .10358 .89676   7.9 40?? 7148  91
2024 10 07 22  12 58 14.996   -13 38 59.26  .10409 .89623   7.9 40?? 7133  91